Regional Weather Roundup
Issued by NWS

Home | Current Version | Previous Version | Text Only | Print | Product List | Glossary On
Versions: 1 2 3 4 5 6 7 8 9 10 11 12 13 14 15 16 17 18 19 20 21 22 23 24 25 26 27
000
ASUS42 KKEY 081910
RWRKEY

FLORIDA REGIONAL WEATHER ROUNDUP FOR THE FLORIDA KEYS
NATIONAL WEATHER SERVICE KEY WEST FLORIDA
200 PM EST THU DEC 08 2016

...SOUTH FLORIDA AND THE KEYS...

CITY           SKY/WX    TMP DP  RH WIND       PRES   REMARKS
FORT MYERS     CLOUDY    74  61  63 N8        30.08F
SW REGIONAL AP CLOUDY    72  61  68 N5        30.08F
NAPLES         MOSUNNY   77  63  61 VRB6      30.06F
MIAMI          PTSUNNY   85  72  65 VRB5      30.04F HX  91
WEST KENDALL   SUNNY     82  71  69 NW3       30.04F
HOMESTEAD      MOSUNNY   80  80 100 S5        30.04F HX  90
MARATHON       MOSUNNY   84  75  74 N5        30.03F HX  92
BOCA CHICA NAS MOSUNNY   79  73  82 N10       30.04F
KEY WEST INTL  MOSUNNY   81  75  82 N9        30.05F

...INTERNATIONAL WEATHER...

CITY           SKY/WX    TMP DP  RH WIND       PRES   REMARKS
NASSAU BAHAMAS PTSUNNY   82  70  65 VRB2      30.03
CANCUN MEXICO  PTSUNNY   84  73  70 E10       30.01F HX  91
COZUMEL MEXICO MOSUNNY   84  73  70 SE8       29.99F HX  91

ADJACENT COASTAL WATERS...

STATION/POSITION TIME  SKY/WX   TEMP    WIND        PRES    WAVE
                                AIR SEA DIR/SP/G            HT/PER
                 (UTC)          (F)     (DEG/KT/KT) (MB)    (FT/S)
PULASKI SHOAL LI 1900            75      40/ 12/ 12 1018.0F
SAND KEY         1850            77      30/  9/ 10 1018.0F
LONG KEY         1800            78 81   90/  1/  4 1018.4F
MOLASSES REEF    1800            79 79   80/  4/  4 1018.3F
FOWEY ROCKS      1800            79 78  260/  3/  3 1018.7F

$$




USA.gov is the U.S. government's official web portal to all federal, state and local government web resources and services.